CFG2YP LSZH-EDDP

Flight info

Callsign CFG2YP
Flight time 0h 55m
Altitude 36000
Route DEGES4N/32 DEGES Z1 ETAGO DCT TIKNI/N0457F350 T279 TAMEB T955 GOXLI GOXLI1R
Aircraft B753/M-SDE2E3FGHIJ3J4J7RWXY/LB1

Departure

Time 2026-05-07 19:02
Airport Zürich Airport (LSZH)

Arrival

Time 2026-05-07 19:57
Airport Leipzig/Halle Airport (EDDP)
Time Latitude Longitude Altitude Speed Heading
2026-05-07 19:02 47.51565 8.39466 7992 ft 248 kts 230°
2026-05-07 19:02 47.50172 8.37901 8580 ft 263 kts 201°
2026-05-07 19:03 47.48340 8.37507 9174 ft 281 kts 173°
2026-05-07 19:03 47.46507 8.38478 9980 ft 291 kts 149°
2026-05-07 19:03 47.44972 8.40545 10047 ft 302 kts 128°
2026-05-07 19:03 47.44047 8.43268 10035 ft 293 kts 104°
2026-05-07 19:04 47.44000 8.46210 10078 ft 296 kts 79°
2026-05-07 19:04 47.44633 8.49195 10530 ft 314 kts 72°
2026-05-07 19:04 47.45351 8.52346 11002 ft 336 kts 72°
2026-05-07 19:04 47.46115 8.55736 11472 ft 356 kts 72°
2026-05-07 19:05 47.46919 8.59306 11923 ft 376 kts 72°
2026-05-07 19:05 47.47622 8.63095 12515 ft 388 kts 82°
2026-05-07 19:05 47.47834 8.67045 13426 ft 392 kts 91°
2026-05-07 19:05 47.47695 8.71041 14234 ft 397 kts 96°
2026-05-07 19:06 47.47355 8.75133 15115 ft 401 kts 99°
2026-05-07 19:06 47.46419 8.83286 16708 ft 410 kts 102°
2026-05-07 19:06 47.45880 8.87409 17487 ft 414 kts 102°
2026-05-07 19:07 47.45308 8.91627 18207 ft 419 kts 102°
2026-05-07 19:07 47.44719 8.95867 18928 ft 424 kts 102°
2026-05-07 19:07 47.44114 9.00165 19669 ft 428 kts 102°
2026-05-07 19:07 47.43507 9.04438 20359 ft 432 kts 102°
2026-05-07 19:08 47.42880 9.08829 20995 ft 438 kts 102°
2026-05-07 19:08 47.42374 9.13246 21684 ft 442 kts 95°
2026-05-07 19:08 47.42344 9.17757 22281 ft 447 kts 85°
2026-05-07 19:08 47.42818 9.22278 22973 ft 450 kts 76°
2026-05-07 19:09 47.43806 9.26699 23547 ft 454 kts 65°
2026-05-07 19:09 47.45261 9.30806 24130 ft 457 kts 57°
2026-05-07 19:09 47.47144 9.34629 24711 ft 459 kts 47°
2026-05-07 19:09 47.49410 9.37929 25213 ft 462 kts 37°
2026-05-07 19:10 47.52048 9.40664 25790 ft 462 kts 27°
2026-05-07 19:10 47.54938 9.42727 26297 ft 463 kts 18°
2026-05-07 19:10 47.57983 9.44236 26796 ft 463 kts 11°
2026-05-07 19:10 47.61137 9.45014 27319 ft 462 kts
2026-05-07 19:11 47.64344 9.45284 27777 ft 465 kts 359°
2026-05-07 19:11 47.67574 9.45517 28294 ft 468 kts 359°
2026-05-07 19:11 47.70838 9.45727 28797 ft 471 kts 359°
2026-05-07 19:11 47.74145 9.45927 29248 ft 474 kts 359°
2026-05-07 19:12 47.77422 9.46116 29751 ft 476 kts 359°
2026-05-07 19:12 47.80757 9.46275 30216 ft 478 kts 357°
2026-05-07 19:12 47.84069 9.46266 30883 ft 475 kts 356°
2026-05-07 19:12 47.87352 9.46260 31390 ft 475 kts 356°
2026-05-07 19:13 47.90666 9.46254 31915 ft 473 kts 356°
2026-05-07 19:13 47.93899 9.46247 32338 ft 473 kts 356°
2026-05-07 19:13 47.97205 9.46240 32795 ft 472 kts 356°
2026-05-07 19:13 48.00467 9.46232 33200 ft 472 kts 356°
2026-05-07 19:14 48.03731 9.46225 33633 ft 471 kts 356°
2026-05-07 19:14 48.07022 9.46218 34062 ft 468 kts 356°
2026-05-07 19:14 48.10104 9.46217 34959 ft 451 kts 355°
2026-05-07 19:14 48.13312 9.46205 34906 ft 462 kts 355°
2026-05-07 19:15 48.16606 9.46238 34581 ft 475 kts 359°
2026-05-07 19:15 48.19890 9.46860 34274 ft 478 kts
2026-05-07 19:15 48.23029 9.48243 34065 ft 475 kts 18°
2026-05-07 19:15 48.26012 9.50412 34048 ft 475 kts 28°
2026-05-07 19:16 48.31488 9.56273 34039 ft 485 kts 28°
2026-05-07 19:16 48.37599 9.60254 34047 ft 474 kts
2026-05-07 19:17 48.44031 9.61131 34045 ft 465 kts 351°
2026-05-07 19:17 48.50212 9.58904 34045 ft 457 kts 333°
2026-05-07 19:18 48.55521 9.53845 34048 ft 451 kts 317°
2026-05-07 19:18 48.60449 9.47976 34043 ft 454 kts 326°
2026-05-07 19:19 48.66273 9.44090 34048 ft 460 kts 340°
2026-05-07 19:19 48.72638 9.42710 34056 ft 467 kts 359°
2026-05-07 19:20 48.79057 9.44500 34059 ft 474 kts 16°
2026-05-07 19:20 48.85362 9.47201 34050 ft 470 kts
2026-05-07 19:21 48.91811 9.48691 34052 ft 471 kts
2026-05-07 19:21 48.98276 9.50272 34053 ft 470 kts
2026-05-07 19:22 49.04726 9.51883 34060 ft 471 kts
2026-05-07 19:22 49.11159 9.53506 34060 ft 470 kts
2026-05-07 19:23 49.17574 9.55133 34060 ft 469 kts
2026-05-07 19:23 49.24014 9.56771 34052 ft 469 kts
2026-05-07 19:24 49.30428 9.58408 34052 ft 469 kts
2026-05-07 19:24 49.36895 9.60063 34053 ft 469 kts
2026-05-07 19:25 49.43325 9.61714 34055 ft 469 kts
2026-05-07 19:25 49.49756 9.63369 34054 ft 469 kts
2026-05-07 19:26 49.56192 9.65029 34055 ft 468 kts
2026-05-07 19:26 49.62605 9.66689 34051 ft 469 kts
2026-05-07 19:27 49.69014 9.68350 34046 ft 469 kts
2026-05-07 19:27 49.75436 9.70021 34048 ft 469 kts
2026-05-07 19:28 49.81884 9.71703 34046 ft 468 kts
2026-05-07 19:28 49.88336 9.73390 34055 ft 468 kts
2026-05-07 19:29 49.94754 9.75073 34049 ft 467 kts
2026-05-07 19:29 50.01174 9.76761 34053 ft 468 kts
2026-05-07 19:30 50.07598 9.78454 34052 ft 468 kts
2026-05-07 19:30 50.14001 9.80147 34050 ft 469 kts
2026-05-07 19:31 50.20468 9.81861 34041 ft 468 kts
2026-05-07 19:31 50.26769 9.83536 34050 ft 468 kts
2026-05-07 19:32 50.33182 9.85245 34043 ft 468 kts
2026-05-07 19:32 50.39529 9.87179 34045 ft 468 kts 10°
2026-05-07 19:33 50.45964 9.89214 34042 ft 468 kts 10°
2026-05-07 19:33 50.52384 9.91247 34043 ft 468 kts 10°
2026-05-07 19:34 50.58769 9.93285 34036 ft 468 kts 10°
2026-05-07 19:34 50.65114 9.95310 34044 ft 469 kts 10°
2026-05-07 19:35 50.71524 9.97345 34047 ft 469 kts 10°
2026-05-07 19:35 50.77890 9.99417 34051 ft 469 kts 14°
2026-05-07 19:36 50.83792 10.03546 34050 ft 450 kts 33°
2026-05-07 19:36 50.88243 10.10198 34068 ft 449 kts 53°
2026-05-07 19:37 50.89936 10.14405 33775 ft 464 kts 61°
2026-05-07 19:37 50.91237 10.19139 33213 ft 467 kts 71°
2026-05-07 19:37 50.92001 10.23920 32722 ft 461 kts 80°
2026-05-07 19:37 50.92307 10.28960 32102 ft 455 kts 86°
2026-05-07 19:38 50.92434 10.33938 31486 ft 453 kts 87°
2026-05-07 19:38 50.92514 10.38943 30818 ft 455 kts 92°
2026-05-07 19:38 50.92145 10.43910 30112 ft 460 kts 101°
2026-05-07 19:38 50.91259 10.48756 29405 ft 463 kts 111°
2026-05-07 19:39 50.89877 10.53336 28693 ft 460 kts 120°
2026-05-07 19:39 50.88067 10.57429 27981 ft 453 kts 130°
2026-05-07 19:39 50.85979 10.61129 27288 ft 444 kts 129°
2026-05-07 19:39 50.84255 10.65015 26617 ft 440 kts 120°
2026-05-07 19:40 50.82942 10.69419 25930 ft 437 kts 110°
2026-05-07 19:40 50.82144 10.74038 25253 ft 433 kts 99°
2026-05-07 19:40 50.81904 10.78670 25034 ft 418 kts 88°
2026-05-07 19:40 50.82206 10.83081 25047 ft 396 kts 76°
2026-05-07 19:41 50.83147 10.87183 24975 ft 405 kts 62°
2026-05-07 19:41 50.84681 10.91028 24374 ft 419 kts 51°
2026-05-07 19:41 50.86632 10.94386 23759 ft 410 kts 41°
2026-05-07 19:41 50.88697 10.97539 23154 ft 407 kts 47°
2026-05-07 19:42 50.90476 11.00960 22561 ft 405 kts 52°
2026-05-07 19:42 50.92118 11.04619 21953 ft 402 kts 55°
2026-05-07 19:42 50.93630 11.08276 21367 ft 400 kts 57°
2026-05-07 19:42 50.95090 11.11979 20778 ft 397 kts 57°
2026-05-07 19:43 50.96518 11.15712 20363 ft 389 kts 58°
2026-05-07 19:43 50.97879 11.19334 19947 ft 380 kts 58°
2026-05-07 19:43 50.99204 11.22904 19380 ft 373 kts 58°
2026-05-07 19:43 51.00507 11.26437 18820 ft 373 kts 58°
2026-05-07 19:44 51.01830 11.30044 18258 ft 374 kts 58°
2026-05-07 19:44 51.03117 11.33564 17699 ft 371 kts 58°
2026-05-07 19:44 51.04391 11.37058 17140 ft 366 kts 58°
2026-05-07 19:44 51.05658 11.40540 16582 ft 361 kts 58°
2026-05-07 19:45 51.06897 11.43974 16027 ft 357 kts 59°
2026-05-07 19:45 51.08105 11.47408 15475 ft 355 kts 59°
2026-05-07 19:45 51.09300 11.50793 14924 ft 352 kts 59°
2026-05-07 19:45 51.10436 11.54037 14386 ft 349 kts 59°
2026-05-07 19:46 51.11612 11.57403 13844 ft 346 kts 59°
2026-05-07 19:46 51.12764 11.60708 13301 ft 342 kts 59°
2026-05-07 19:46 51.13904 11.63979 12746 ft 341 kts 59°
2026-05-07 19:46 51.15052 11.67276 12203 ft 340 kts 60°
2026-05-07 19:47 51.16194 11.70544 11669 ft 338 kts 59°
2026-05-07 19:47 51.17309 11.73743 11341 ft 314 kts 60°
2026-05-07 19:47 51.18325 11.76671 11000 ft 292 kts 59°
2026-05-07 19:47 51.19245 11.79345 10680 ft 279 kts 60°
2026-05-07 19:48 51.20180 11.82063 10316 ft 284 kts 59°
2026-05-07 19:48 51.21133 11.84829 9932 ft 283 kts 60°
2026-05-07 19:48 51.22089 11.87603 9338 ft 287 kts 59°
2026-05-07 19:48 51.23067 11.90433 8736 ft 293 kts 59°
2026-05-07 19:49 51.24049 11.93276 8087 ft 288 kts 59°
2026-05-07 19:49 51.24953 11.95902 7594 ft 275 kts 59°
2026-05-07 19:49 51.26139 11.98286 7085 ft 260 kts 34°
2026-05-07 19:49 51.27743 11.99371 6632 ft 248 kts
2026-05-07 19:50 51.29409 11.99015 6232 ft 248 kts 336°
2026-05-07 19:50 51.30760 11.97333 5849 ft 252 kts 307°
2026-05-07 19:50 51.31418 11.94732 5491 ft 257 kts 277°
2026-05-07 19:50 51.31350 11.91859 5084 ft 260 kts 264°
2026-05-07 19:51 51.31117 11.88963 4683 ft 263 kts 265°
2026-05-07 19:51 51.31174 11.86118 4394 ft 254 kts 290°
2026-05-07 19:51 51.32049 11.83792 4336 ft 237 kts 321°
2026-05-07 19:51 51.33455 11.82647 4273 ft 220 kts 351°
2026-05-07 19:52 51.34945 11.82635 4156 ft 216 kts 18°
2026-05-07 19:52 51.36280 11.83794 4021 ft 222 kts 37°
2026-05-07 19:52 51.37503 11.85301 3832 ft 221 kts 37°
2026-05-07 19:52 51.38713 11.86806 3604 ft 219 kts 37°
2026-05-07 19:53 51.39731 11.88583 3392 ft 219 kts 67°
2026-05-07 19:53 51.39937 11.90976 3214 ft 219 kts 88°
2026-05-07 19:53 51.39957 11.93440 3003 ft 219 kts 85°
2026-05-07 19:53 51.40031 11.95840 2994 ft 217 kts 84°
2026-05-07 19:54 51.40119 11.98197 2978 ft 207 kts 84°
2026-05-07 19:54 51.40210 12.00384 2985 ft 184 kts 84°
2026-05-07 19:54 51.40298 12.02345 2710 ft 173 kts 83°
2026-05-07 19:54 51.40389 12.04250 2507 ft 169 kts 83°
2026-05-07 19:55 51.40478 12.06129 2315 ft 170 kts 83°
2026-05-07 19:55 51.40570 12.08025 2075 ft 171 kts 83°
2026-05-07 19:55 51.40659 12.09889 1823 ft 162 kts 83°
2026-05-07 19:55 51.40742 12.11634 1603 ft 153 kts 83°
2026-05-07 19:56 51.40816 12.13235 1432 ft 135 kts 83°
2026-05-07 19:56 51.40889 12.14726 1167 ft 134 kts 83°
2026-05-07 19:56 51.40964 12.16197 1007 ft 134 kts 83°
2026-05-07 19:56 51.41035 12.17686 897 ft 134 kts 83°
2026-05-07 19:57 51.41103 12.19196 723 ft 138 kts 84°
2026-05-07 19:57 51.41169 12.20745 513 ft 140 kts 84°
2026-05-07 19:57 51.41239 12.22171 483 ft 105 kts 86°
2026-05-07 19:57 51.41276 12.22934 483 ft 36 kts 85°
2026-05-07 19:58 51.41296 12.23217 483 ft 16 kts 60°
2026-05-07 19:58 51.41367 12.23254 482 ft 10 kts 356°
2026-05-07 19:58 51.41449 12.23245 483 ft 12 kts 355°
2026-05-07 19:58 51.41536 12.23234 483 ft 8 kts 355°
2026-05-07 19:59 51.41552 12.23232 482 ft 0 kts 355°
2026-05-07 19:59 51.41572 12.23226 483 ft 8 kts 342°
2026-05-07 20:00 51.41611 12.23155 483 ft 9 kts 287°
2026-05-07 20:00 51.41630 12.23053 482 ft 9 kts 286°
2026-05-07 20:00 51.41649 12.22943 483 ft 10 kts 285°
2026-05-07 20:00 51.41670 12.22822 483 ft 11 kts 285°
2026-05-07 20:01 51.41692 12.22695 483 ft 12 kts 285°
2026-05-07 20:01 51.41715 12.22562 483 ft 11 kts 285°
2026-05-07 20:01 51.41736 12.22440 483 ft 11 kts 285°
2026-05-07 20:01 51.41752 12.22337 482 ft 0 kts 284°
2026-05-07 20:02 51.41758 12.22308 483 ft 3 kts 299°
2026-05-07 20:02 51.41774 12.22282 483 ft 2 kts 345°
2026-05-07 20:02 51.41792 12.22290 483 ft 4 kts 19°
2026-05-07 20:02 51.41830 12.22308 483 ft 6 kts 15°
2026-05-07 20:03 51.41846 12.22315 482 ft 0 kts 14°